Starlink 34301

operational
NORAD ID: 64349 Int'l Des: 2025-126 Owner: SPXS Country: US Constellation: starlink
LEOCIRCULAR

Über Starlink 34301

Beschreibung wird geladen...

Live-Position

3D-Globus wird geladen...

Nächste Überflüge

Höhenverlauf

Altitude vs Time

uPlot chart will show altitude changes over time

Zweizeiliger Elementsatz

1 64349U 25126F 26061.14619936 .00001265 00000-0 11378-3 0 9993
2 64349 70.0009 53.4082 0003035 282.0136 78.0683 14.98334584 39552
Epoch: 2. März 2026 • Age: 23 hours

Aktueller Status

Höhe 575.9 km
Geschwindigkeit 7.57 km/s
Subsatellitenpunkt 25.14°N, 69.52°E
Startdatum 13. Juni 2025
Alter 0.7 years
Typ internet

Technische Details

Klassifizierung Payload
Masse 575.00 kg
Trockenmasse 530.00 kg
Gesamtmasse 575.00 kg
Länge 0.30 m
Durchmesser 4.10 m
Spannweite 29.00 m
Form Box + pan
Hersteller SPXS
Bus-Typ Starlink V2MO
Phasenstatus In Orbit
Besitzer/Staat SPXS/US

Große Konstellationen

Loading constellations...